Tracking 33723 objects as of 10-Apr-2026
HD Live streaming from Space Station
objects crossing your sky now

STARLINK-6042

Track STARLINK-6042 now!
10-day predictions
STARLINK-6042 is classified as:


NORAD ID: 56808
Int'l Code: 2023-078AT
Perigee: 577.2 km
Apogee: 581.3 km
Inclination: 70.0 °
Period: 96.1 minutes
Semi major axis: 6950 km
RCS: Unknown
Launch date: May 31, 2023
Source: United States (US)
Launch site: AIR FORCE WESTERN TEST RANGE (AFWTR)
Your satellite tracking list
Your tracking list is empty




NASA's NSSDC Master Catalog

Two Line Element Set (TLE):
1 56808U 23078AT  26100.31205747  .00001152  00000-0  10437-3 0  9992
2 56808  70.0006 194.8066 0002964 270.7189  89.3630 14.98323927159159
Source of the keplerian elements: AFSPC